Regional Weather Roundup
Issued by NWS

Home | Current Version | Previous Version | Graphics & Text | Print | Product List | Glossary On
Versions: 1 2 3 4 5 6 7 8 9 10 11 12 13 14 15 16 17 18 19 20 21 22 23 24 25
000
ASUS45 KCYS 221310
RWRWY

WYOMING REGIONAL WEATHER ROUNDUP
NATIONAL WEATHER SERVICE CHEYENNE WY
700 AM MDT WED OCT 22 2014

NOTE:  "FAIR" INDICATES FEW OR NO CLOUDS BELOW 12,000 FEET
WITH NO SIGNIFICANT WEATHER AND/OR OBSTRUCTIONS TO VISIBILITY.

WYZ001-221400-
YELLOWSTONE NATIONAL PARK

CITY           SKY/WX    TMP DP  RH WIND       PRES   REMARKS
LK YELLOWSTONE   N/A     28  26  92 VRB3      30.16S
W YELLOWSTONE  NOT AVBL

$$
WYZ002>013-054>058-071-098>099-221400-
NORTHERN WYOMING

CITY           SKY/WX    TMP DP  RH WIND       PRES   REMARKS
JACKSON        CLEAR     28  27  93 SE6       30.16R WCI  22
CODY           PTCLDY    43  25  49 CALM      30.04S
GREYBULL       CLEAR     31  23  72 CALM      30.05R
WORLAND        CLEAR     30  21  69 S6        30.05R WCI  24
SHERIDAN       CLEAR     37  26  64 SW6       30.03R WCI  32
BUFFALO        CLEAR     35  24  64 SW3       30.05R
GILLETTE       PTCLDY    36  28  73 W3        30.03R
HULETT         FAIR      41  32  70 SW6       30.03
NEWCASTLE      FAIR      45  32  61 NW14G20   30.02

$$
WYZ014>020-022>026-101>103-221400-
CENTRAL WYOMING

CITY           SKY/WX    TMP DP  RH WIND       PRES   REMARKS
BIG PINEY      PTCLDY    20  17  88 CALM      30.19R
PINEDALE       SUNNY     21  21 100 NW6       30.19S WCI  14
DUBOIS         FAIR      32  23  69 NW10G16   30.11R WCI  24
LANDER         CLEAR     35  20  54 SW7       30.07R WCI  29
RIVERTON       CLEAR     38  23  55 W15       30.08R WCI  29
CASPER         CLEAR     34  21  59 SW6       30.08R WCI  29
DOUGLAS        MOCLDY    39  23  52 NW9       30.08R WCI  33

$$
WYZ021-027>030-104>119-221400-
SOUTHERN WYOMING

CITY           SKY/WX    TMP DP  RH WIND       PRES   REMARKS
EVANSTON       PTCLDY    28  22  78 CALM      30.19S
FORT BRIDGER   FAIR      32  27  83 W3        30.22S
ROCK SPRINGS   CLEAR     31  26  82 W7        30.18R WCI  24
DIXON          CLOUDY    41  39  94 CALM      30.19S
RAWLINS        CLEAR     35  29  78 W12       30.15R WCI  27
SARATOGA       FAIR      34  32  93 W6        30.16S WCI  29
LARAMIE        CLOUDY    39  34  82 NW6       30.13R WCI  35
CHEYENNE       CLOUDY    48  36  63 N3        30.08R
TORRINGTON     PTCLDY    49  34  56 NW9       30.01R
PINE BLUFFS    CLOUDY    46  41  81 NW5       30.05R

$$



USA.gov is the U.S. government's official web portal to all federal, state and local government web resources and services.